WetterOnline ( https://www.wetteronline.de )

Wetter aktuell Grevinge

Aktuelles Wetter: Holbaek Flyveplads (13m)

6-stündlich | Neueste Meldungen
Ortszeit Temperatur Wetter
Mo, 10.08. 8:00 21.2° C wolkenlos
Mo, 10.08. 2:00 17.2° C leicht bewölkt
So, 09.08. 20:00 24.2° C wolkenlos
So, 09.08. 14:00 28.5° C wolkenlos
So, 09.08. 8:00 19.0° C wolkenlos
So, 09.08. 2:00 14.6° C wolkenlos
Sa, 08.08. 20:00 24.0° C wolkig
Sa, 08.08. 14:00 28.8° C wolkenlos
Ortszeit Temperatur Wetter
Mo, 10.08. 13:00 29.3° C fast wolkenlos
Mo, 10.08. 12:00 26.6° C wolkig
Mo, 10.08. 11:00 26.0° C wolkig
Mo, 10.08. 10:00 24.7° C fast wolkenlos
Mo, 10.08. 9:00 22.6° C wolkenlos
Mo, 10.08. 8:00 21.2° C wolkenlos
Ortszeit Relative Feuchte Sichtweite
Mo, 10.08. 8:00 77% 35 km
Mo, 10.08. 2:00 89% 22 km
So, 09.08. 20:00 57% 45 km
So, 09.08. 14:00 38% 30 km
So, 09.08. 8:00 75% 35 km
So, 09.08. 2:00 86% 35 km
Sa, 08.08. 20:00 52% 40 km
Sa, 08.08. 14:00 40% 30 km
Ortszeit Relative Feuchte Sichtweite
Mo, 10.08. 13:00 50% 15 km
Mo, 10.08. 12:00 59% 29 km
Mo, 10.08. 11:00 59% 30 km
Mo, 10.08. 10:00 67% 30 km
Mo, 10.08. 9:00 74% 30 km
Mo, 10.08. 8:00 77% 35 km
Ortszeit Niederschlagsmenge Niederschlagsart
Mo, 10.08. 8:00 0.0 l/m2 in 3 Std. -
Mo, 10.08. 2:00 0.0 l/m2 in 3 Std. -
So, 09.08. 20:00 0.0 l/m2 in 3 Std. -
So, 09.08. 14:00 0.0 l/m2 in 3 Std. -
So, 09.08. 8:00 0.0 l/m2 in 3 Std. -
So, 09.08. 2:00 keine Meldung -
Sa, 08.08. 20:00 0.0 l/m2 in 3 Std. -
Sa, 08.08. 14:00 0.0 l/m2 in 3 Std. -
Ortszeit Niederschlagsmenge Niederschlagsart
Mo, 10.08. 13:00 0.0 l/m2 in 1 Std. -
Mo, 10.08. 12:00 keine Meldung -
Mo, 10.08. 11:00 keine Meldung -
Mo, 10.08. 10:00 0.0 l/m2 in 1 Std. -
Mo, 10.08. 9:00 0.0 l/m2 in 1 Std. -
Mo, 10.08. 8:00 0.0 l/m2 in 1 Std. -
Ortszeit Stärke Spitze Richtung
km/h Bft. km/h Grad Sektor
Mo, 10.08. 8:00 7 2 - 20° N
Mo, 10.08. 2:00 4 1 - 340° N
So, 09.08. 20:00 7 2 - 20° N
So, 09.08. 14:00 17 3 - 10° N
So, 09.08. 8:00 2 1 - 310° NW
So, 09.08. 2:00 0 0 - - -
Sa, 08.08. 20:00 6 1 - 360° N
Sa, 08.08. 14:00 9 2 - 10° N
Ortszeit Stärke Spitze Richtung
km/h Bft. km/h Grad Sektor
Mo, 10.08. 13:00 15 3 - 50° NO
Mo, 10.08. 12:00 9 2 - 40° NO
Mo, 10.08. 11:00 7 2 - 50° NO
Mo, 10.08. 10:00 6 1 - 50° NO
Mo, 10.08. 9:00 11 2 - 30° NO
Mo, 10.08. 8:00 7 2 - 20° N
Ortszeit Untergrenze Bedeckung Gattung
total tief tief mittel hoch
Mo, 10.08. 8:00 - 0/8 0/8 - - -
Mo, 10.08. 2:00 5400 m 3/8 3/8 - - -
So, 09.08. 20:00 - 0/8 0/8 - - -
So, 09.08. 14:00 - 0/8 0/8 - - -
So, 09.08. 8:00 - 0/8 0/8 - - -
So, 09.08. 2:00 - 0/8 0/8 - - -
Sa, 08.08. 20:00 6000 m 5/8 5/8 - - -
Sa, 08.08. 14:00 - 0/8 0/8 - - -
Ortszeit Bedeckungsgrad in Achtel und Wolkenuntergrenze
Mo, 10.08. 13:00 1(5100m)
Mo, 10.08. 12:00 1(4500m) 5(5100m)
Mo, 10.08. 11:00 5(4800m)
Mo, 10.08. 10:00 1(5100m)
Mo, 10.08. 9:00 keine Wolken
Mo, 10.08. 8:00 keine Wolken
Ortszeit Luftdruck NN (hPa) Tendenz (hPa in 3 Std.)
Mo, 10.08. 8:00 1020 + 0,1
Mo, 10.08. 2:00 1020 - 0,3
So, 09.08. 20:00 1020 - 0,1
So, 09.08. 14:00 1021 - 0,3
So, 09.08. 8:00 1021 + 0,3
So, 09.08. 2:00 1021 - 0,1
Sa, 08.08. 20:00 1021 + 0,1
Sa, 08.08. 14:00 1021 - 0,7
Ortszeit Luftdruck NN (hPa) Tendenz (hPa in 3 Std.)
Mo, 10.08. 13:00 1021 + 0,2
Mo, 10.08. 12:00 1021 + 0,4
Mo, 10.08. 11:00 1020 + 0,1
Mo, 10.08. 10:00 1020 + 0,2
Mo, 10.08. 9:00 1020 - 0,2
Mo, 10.08. 8:00 1020 + 0,1
Ortszeit Schneehöhe (cm)
Mo, 10.08. 8:00 -
Mo, 10.08. 2:00 -
So, 09.08. 20:00 -
So, 09.08. 14:00 -
So, 09.08. 8:00 -
So, 09.08. 2:00 -
Sa, 08.08. 20:00 -
Sa, 08.08. 14:00 -
Ortszeit Schneehöhe (cm)
Mo, 10.08. 13:00 -
Mo, 10.08. 12:00 -
Mo, 10.08. 11:00 -
Mo, 10.08. 10:00 -
Mo, 10.08. 9:00 -
Mo, 10.08. 8:00 -
Link zu dieser Seite / Seite empfehlen

Das Wetter in ...